Flag for Netherlands Weather past 2 weeks in Apeldoorn, Netherlands

Now
66 °F

Scattered clouds.


Feels Like: 66 °F
Forecast: 54 / 62 °F
Wind: 17 mph from Southwest

Location: Deelen

Current Time: Jul 28, 2015 at 5:43:44 PM

Latest Report: Jul 28, 2015 at 4:55 PM


Visibility: N/A

Pressure: 29.65 "Hg

Humidity: 60%

Dew point: 52 °F

Location of ApeldoornLocation

Historic Weather in Apeldoorn — Graph

°F

Apeldoorn temperature yesterday

Maximum temperature yesterday: 66 °F (at 4:25 PM)
Minimum temperature yesterday: 55 °F (at 12:25 AM)
Average temperature yesterday: 60 °F

Past Weeks' High & Low Weather Summary

 TemperatureHumidityPressure
High79 °F (Jul 17, 1:25 PM)100% (Jul 13, 8:25 PM)30.12 "Hg (Jul 13, 8:25 PM)
Low46 °F (Jul 26, 4:25 AM)40% (Jul 23, 4:25 PM)29.45 "Hg (Jul 25, 6:25 AM)
Average64 °F80%29.88 "Hg
* Reported Jul 13 4:25 PM — Jul 28 4:25 PM, Apeldoorn, Weather by CustomWeather, © 2015

Note: Actual official high and low records may vary slightly from our data, if they occured in-between our weather recording intervals... More about our weather records

Advertising

Apeldoorn weather history for previous 24 hours

 ConditionsComfort  
Time TempWeatherWind HumidityBarometerVisibility
4:25 PM
Tue, Jul 28
66 °FPassing clouds.23 mph56%29.65 "HgN/A
3:55 PM66 °FPassing clouds.20 mph52%29.65 "HgN/A
3:25 PM63 °FBroken clouds.15 mph59%29.65 "HgN/A
2:55 PM64 °FScattered clouds.21 mph64%29.65 "HgN/A
2:25 PM64 °FBroken clouds.15 mph68%29.65 "HgN/A
1:55 PM61 °FBroken clouds.13 mph83%29.65 "HgN/A
1:25 PM61 °FBroken clouds.10 mph88%29.65 "HgN/A
12:55 PM59 °FBroken clouds.16 mph88%29.65 "HgN/A
12:25 PM61 °FBroken clouds.15 mph83%29.62 "HgN/A
11:55 AM59 °FBroken clouds.15 mph88%29.62 "HgN/A
11:25 AM61 °FBroken clouds.12 mph88%29.62 "HgN/A
10:55 AM59 °FBroken clouds.15 mph94%29.62 "HgN/A
10:25 AM57 °FBroken clouds.12 mph94%29.62 "HgN/A
9:55 AM57 °FBroken clouds.13 mph94%29.62 "HgN/A
9:25 AM57 °FBroken clouds.16 mph94%29.62 "HgN/A
8:55 AM57 °FMostly cloudy.14 mph88%29.62 "HgN/A
8:25 AM57 °FMostly cloudy.16 mph94%29.59 "HgN/A
7:55 AM57 °FBroken clouds.13 mph94%29.59 "HgN/A
7:25 AM57 °FMostly cloudy.14 mph88%29.59 "HgN/A
6:55 AM57 °FMostly cloudy.15 mph88%29.59 "HgN/A
6:25 AM57 °FPartly cloudy.15 mph88%29.59 "HgN/A
5:55 AM57 °FMostly cloudy.14 mph88%29.59 "HgN/A
5:25 AM57 °FMostly cloudy.15 mph88%29.59 "HgN/A
4:55 AM57 °FPartly cloudy.15 mph88%29.59 "HgN/A
4:25 AM57 °FMostly cloudy.14 mph82%29.59 "HgN/A
3:55 AM59 °FMostly cloudy.13 mph82%29.59 "HgN/A
3:25 AM57 °FPassing clouds.15 mph88%29.56 "HgN/A
2:55 AM59 °FOvercast.15 mph82%29.56 "HgN/A
2:25 AM59 °FOvercast.16 mph82%29.56 "HgN/A
1:55 AM59 °FPartly cloudy.18 mph77%29.56 "HgN/A
1:25 AM59 °FMostly cloudy.16 mph82%29.59 "HgN/A
12:55 AM59 °FPassing clouds.17 mph82%29.59 "HgN/A
12:25 AM59 °FPassing clouds.21 mph82%29.56 "HgN/A
11:55 PM
Mon, Jul 27
59 °FOvercast.18 mph82%29.59 "HgN/A
11:25 PM59 °FMostly cloudy.15 mph88%29.59 "HgN/A
10:55 PM59 °FOvercast.16 mph88%29.59 "HgN/A
10:25 PM61 °FBroken clouds.10 mph83%29.56 "HgN/A
9:55 PM61 °FPartly sunny.14 mph88%29.56 "HgN/A
9:25 PM61 °FPartly sunny.17 mph88%29.56 "HgN/A
8:55 PM63 °FBroken clouds.14 mph77%29.56 "HgN/A
8:25 PM64 °FBroken clouds.17 mph73%29.56 "HgN/A
7:55 PM63 °FOvercast.16 mph77%29.56 "HgN/A
7:25 PM64 °FMore clouds than sun.18 mph73%29.56 "HgN/A
6:55 PM64 °FBroken clouds.18 mph73%29.53 "HgN/A
6:25 PM64 °FBroken clouds.21 mph78%29.53 "HgN/A
5:55 PM64 °FPartly sunny.20 mph73%29.53 "HgN/A
5:25 PM66 °FMostly cloudy.20 mph68%29.53 "HgN/A
Weather by CustomWeather, © 2015

See weather overviewHow to use our weather pages